Location: Eitze
(52.9840°N, 9.6894°E)
Time: 06:43:48
(UTC+00:00)

Cosmos 1805 Rocket - Pass Details

Date: 19 May 2025
Orbit: 600 x 623 km, 82.5° (Epoch: 14 June)

Event Time Altitude Azimuth Distance (km) Brightness Sun altitude
Rises 23:01:08 0° 346° (NNW) 2,919 8.7 -16.9°
Reaches altitude 10° 23:03:24 10° 342° (NNW) 2,007 7.4 -17.0°
Maximum altitude 23:07:45 56° 265° (W) 743 3.9 -17.0°
Enters shadow 23:09:38 31° 201° (SSW) 1,092 4.3 -17.0°
